TimeEST,TemperatureF,Dew PointF,Humidity,Sea Level PressureIn,VisibilityMPH,Wind Direction,Wind SpeedMPH,Gust SpeedMPH,PrecipitationIn,Events,Conditions,WindDirDegrees,DateUTC
12:00 AM,-9999,-9999,N/A,29.86,-9999.0,East,6.9,-,N/A,,Unknown,80,2013-11-27 05:00:00
1:00 AM,-27,,,29.88,,ENE,9.2,,,,,70,2013-11-27 06:00:00
1:00 AM,-9999,-9999,N/A,29.88,-9999.0,ENE,6.9,-,N/A,,Unknown,70,2013-11-27 06:00:00
2:00 AM,-9999,-9999,N/A,29.90,-9999.0,ENE,6.9,-,N/A,,Unknown,70,2013-11-27 07:00:00
3:00 AM,-9999,-9999,N/A,29.91,-9999.0,East,6.9,-,N/A,,Unknown,80,2013-11-27 08:00:00
4:00 AM,-26,,,29.92,,ENE,8.1,,,,,70,2013-11-27 09:00:00
4:00 AM,-9999,-9999,N/A,29.92,-9999.0,ENE,6.9,-,N/A,,Unknown,70,2013-11-27 09:00:00
5:00 AM,-9999,-9999,N/A,29.93,-9999.0,ENE,8.1,-,N/A,,Unknown,70,2013-11-27 10:00:00
6:00 AM,-9999,-9999,N/A,29.94,-9999.0,ENE,6.9,-,N/A,,Unknown,70,2013-11-27 11:00:00
7:00 AM,-24,,,29.95,,ENE,6.9,,,,,70,2013-11-27 12:00:00
7:00 AM,-9999,-9999,N/A,29.95,-9999.0,East,6.9,-,N/A,,Unknown,80,2013-11-27 12:00:00
8:00 AM,-9999,-9999,N/A,29.96,-9999.0,ENE,10.4,-,N/A,,Unknown,70,2013-11-27 13:00:00
9:00 AM,-9999,-9999,N/A,29.97,-9999.0,ENE,9.2,-,N/A,,Unknown,70,2013-11-27 14:00:00
10:00 AM,-21,,,29.98,,East,9.2,,,,,80,2013-11-27 15:00:00
10:00 AM,-9999,-9999,N/A,29.98,-9999.0,East,9.2,-,N/A,,Unknown,80,2013-11-27 15:00:00
11:00 AM,-9999,-9999,N/A,29.99,-9999.0,East,15.0,-,N/A,,Unknown,80,2013-11-27 16:00:00
12:00 PM,-9999,-9999,N/A,30.00,-9999.0,East,13.8,-,N/A,,Unknown,80,2013-11-27 17:00:00
1:00 PM,-19,,,30.01,,ENE,11.5,,,,,70,2013-11-27 18:00:00
1:00 PM,-9999,-9999,N/A,30.01,-9999.0,ENE,11.5,-,N/A,,Unknown,70,2013-11-27 18:00:00
2:00 PM,-9999,-9999,N/A,30.02,-9999.0,ENE,13.8,-,N/A,,Unknown,70,2013-11-27 19:00:00
3:00 PM,-9999,-9999,N/A,30.03,-9999.0,East,13.8,-,N/A,,Unknown,80,2013-11-27 20:00:00
4:00 PM,-22,,,30.04,,East,13.8,,,,,80,2013-11-27 21:00:00
4:00 PM,-9999,-9999,N/A,30.04,-9999.0,East,13.8,-,N/A,,Unknown,80,2013-11-27 21:00:00
5:00 PM,-9999,-9999,N/A,30.06,-9999.0,ENE,16.1,-,N/A,,Unknown,70,2013-11-27 22:00:00
6:00 PM,-9999,-9999,N/A,30.07,-9999.0,ENE,13.8,-,N/A,,Unknown,70,2013-11-27 23:00:00
7:00 PM,-21,,,30.08,,ENE,15.0,,,,,60,2013-11-28 00:00:00
7:00 PM,-9999,-9999,N/A,30.08,-9999.0,ENE,15.0,-,N/A,,Unknown,60,2013-11-28 00:00:00
8:00 PM,-9999,-9999,N/A,30.09,-9999.0,ENE,11.5,-,N/A,,Unknown,70,2013-11-28 01:00:00
9:00 PM,-9999,-9999,N/A,30.10,-9999.0,NE,10.4,-,N/A,,Unknown,40,2013-11-28 02:00:00
10:00 PM,-22,,,30.11,,NE,11.5,,,,,50,2013-11-28 03:00:00
10:00 PM,-9999,-9999,N/A,30.11,-9999.0,NE,11.5,-,N/A,,Unknown,50,2013-11-28 03:00:00
11:00 PM,-9999,-9999,N/A,30.10,-9999.0,NE,15.0,-,N/A,,Unknown,50,2013-11-28 04:00:00